QTR992 KSLC-CYWG

Flight info

Callsign QTR992
Flight time 2h 3m
Altitude 41000
Route RUGGD3 HOLTR DCT COD DCT MLS DCT MOT DCT DUVLA BEFAN5
Aircraft A343/H-SDE2E3FGHIJ4J5M1RWXY/LB1D1

Departure

Time 2026-05-08 14:41
Airport Salt Lake City International Airport (KSLC)

Arrival

Time 2026-05-08 16:44
Airport Winnipeg / James Armstrong Richardson International Airport (CYWG)
Time Latitude Longitude Altitude Speed Heading
2026-05-08 13:47 40.78400 -111.97884 4233 ft 0 kts 173°
2026-05-08 14:01 40.78410 -111.97886 4227 ft 2 kts 175°
2026-05-08 14:02 40.78426 -111.97888 4232 ft 2 kts 174°
2026-05-08 14:02 40.78443 -111.97890 4233 ft 2 kts 159°
2026-05-08 14:02 40.78451 -111.97902 4233 ft 1 kts 80°
2026-05-08 14:02 40.78451 -111.97903 4232 ft 0 kts 81°
2026-05-08 14:29 40.78453 -111.97893 4234 ft 3 kts 82°
2026-05-08 14:30 40.78455 -111.97854 4233 ft 6 kts 85°
2026-05-08 14:30 40.78459 -111.97790 4231 ft 8 kts 86°
2026-05-08 14:30 40.78454 -111.97709 4230 ft 9 kts 96°
2026-05-08 14:30 40.78456 -111.97635 4231 ft 8 kts 86°
2026-05-08 14:31 40.78466 -111.97615 4231 ft 1 kts 28°
2026-05-08 14:31 40.78471 -111.97618 4231 ft 1 kts 358°
2026-05-08 14:31 40.78482 -111.97627 4232 ft 4 kts 331°
2026-05-08 14:32 40.78603 -111.97662 4236 ft 13 kts 354°
2026-05-08 14:32 40.78690 -111.97673 4237 ft 12 kts 354°
2026-05-08 14:32 40.78780 -111.97685 4236 ft 13 kts 354°
2026-05-08 14:32 40.78871 -111.97696 4238 ft 13 kts 354°
2026-05-08 14:33 40.78951 -111.97706 4239 ft 11 kts 356°
2026-05-08 14:33 40.79027 -111.97713 4239 ft 11 kts 355°
2026-05-08 14:33 40.79115 -111.97722 4236 ft 14 kts 355°
2026-05-08 14:33 40.79219 -111.97735 4233 ft 16 kts 354°
2026-05-08 14:34 40.79329 -111.97748 4233 ft 16 kts 355°
2026-05-08 14:34 40.79444 -111.97762 4231 ft 17 kts 354°
2026-05-08 14:34 40.79568 -111.97775 4229 ft 18 kts 355°
2026-05-08 14:34 40.79684 -111.97789 4231 ft 16 kts 354°
2026-05-08 14:35 40.79791 -111.97801 4233 ft 15 kts 356°
2026-05-08 14:35 40.79889 -111.97811 4235 ft 13 kts 355°
2026-05-08 14:35 40.79972 -111.97821 4237 ft 11 kts 354°
2026-05-08 14:35 40.80042 -111.97830 4238 ft 10 kts 354°
2026-05-08 14:36 40.80107 -111.97838 4239 ft 9 kts 354°
2026-05-08 14:36 40.80169 -111.97847 4240 ft 9 kts 354°
2026-05-08 14:36 40.80226 -111.97852 4241 ft 8 kts 356°
2026-05-08 14:36 40.80276 -111.97856 4241 ft 7 kts 356°
2026-05-08 14:37 40.80326 -111.97862 4241 ft 7 kts 354°
2026-05-08 14:37 40.80381 -111.97869 4241 ft 9 kts 354°
2026-05-08 14:37 40.80450 -111.97878 4239 ft 11 kts 354°
2026-05-08 14:37 40.80536 -111.97888 4237 ft 13 kts 354°
2026-05-08 14:38 40.80628 -111.97900 4237 ft 13 kts 354°
2026-05-08 14:38 40.80720 -111.97889 4235 ft 12 kts 32°
2026-05-08 14:38 40.80743 -111.97797 4233 ft 9 kts 90°
2026-05-08 14:38 40.80719 -111.97721 4233 ft 9 kts 131°
2026-05-08 14:39 40.80673 -111.97689 4233 ft 7 kts 160°
2026-05-08 14:39 40.80641 -111.97681 4234 ft 0 kts 174°
2026-05-08 14:40 40.80634 -111.97681 4234 ft 7 kts 174°
2026-05-08 14:40 40.80434 -111.97657 4240 ft 56 kts 175°
2026-05-08 14:40 40.79863 -111.97587 4234 ft 108 kts 175°
2026-05-08 14:40 40.78961 -111.97488 4235 ft 149 kts 175°
2026-05-08 14:41 40.77881 -111.97353 4646 ft 155 kts 173°
2026-05-08 14:41 40.76731 -111.97501 4806 ft 183 kts 208°
2026-05-08 14:41 40.75990 -111.98825 5329 ft 188 kts 259°
2026-05-08 14:41 40.76257 -112.00470 5989 ft 191 kts 304°
2026-05-08 14:42 40.77416 -112.01459 6241 ft 215 kts 349°
2026-05-08 14:42 40.78940 -112.01153 6547 ft 234 kts 26°
2026-05-08 14:42 40.80468 -112.00096 6781 ft 262 kts 29°
2026-05-08 14:42 40.82119 -111.98952 7245 ft 277 kts 26°
2026-05-08 14:43 40.83935 -111.98140 8107 ft 275 kts
2026-05-08 14:43 40.85828 -111.98332 9089 ft 273 kts 349°
2026-05-08 14:43 40.87713 -111.98743 9976 ft 277 kts 348°
2026-05-08 14:43 40.89659 -111.99135 10525 ft 291 kts 349°
2026-05-08 14:44 40.91736 -111.99515 10818 ft 311 kts 350°
2026-05-08 14:44 40.93929 -111.99890 11092 ft 330 kts 350°
2026-05-08 14:44 40.96279 -112.00279 11408 ft 347 kts 350°
2026-05-08 14:44 40.98723 -112.00676 11960 ft 356 kts 350°
2026-05-08 14:45 41.01198 -112.01073 12694 ft 359 kts 349°
2026-05-08 14:45 41.03685 -112.01528 13420 ft 362 kts 346°
2026-05-08 14:45 41.06195 -112.01585 14087 ft 374 kts
2026-05-08 14:45 41.08673 -112.00342 14736 ft 390 kts 27°
2026-05-08 14:46 41.10737 -111.97912 15380 ft 404 kts 48°
2026-05-08 14:46 41.12070 -111.94638 16067 ft 415 kts 68°
2026-05-08 14:46 41.12536 -111.90821 16751 ft 425 kts 88°
2026-05-08 14:46 41.12494 -111.86872 17449 ft 427 kts 85°
2026-05-08 14:47 41.12873 -111.82972 18085 ft 425 kts 71°
2026-05-08 14:47 41.14087 -111.79445 18695 ft 419 kts 52°
2026-05-08 14:47 41.16045 -111.76679 19215 ft 414 kts 33°
2026-05-08 14:47 41.18564 -111.74902 19729 ft 410 kts 14°
2026-05-08 14:48 41.21369 -111.74194 20286 ft 408 kts
2026-05-08 14:48 41.24206 -111.73797 20794 ft 412 kts
2026-05-08 14:48 41.27064 -111.73320 21325 ft 416 kts
2026-05-08 14:48 41.29947 -111.72752 21843 ft 420 kts
2026-05-08 14:49 41.32847 -111.72128 22363 ft 423 kts
2026-05-08 14:49 41.35733 -111.71483 22875 ft 425 kts
2026-05-08 14:49 41.38665 -111.70755 23341 ft 430 kts
2026-05-08 14:49 41.41586 -111.69730 23787 ft 434 kts 12°
2026-05-08 14:50 41.44501 -111.68600 24201 ft 436 kts 13°
2026-05-08 14:50 41.47389 -111.67466 24625 ft 438 kts 13°
2026-05-08 14:50 41.50327 -111.66310 25106 ft 440 kts 13°
2026-05-08 14:50 41.53269 -111.65153 25525 ft 442 kts 13°
2026-05-08 14:51 41.56228 -111.63990 25962 ft 443 kts 12°
2026-05-08 14:51 41.59206 -111.62818 26399 ft 445 kts 12°
2026-05-08 14:51 41.62189 -111.61644 26799 ft 447 kts 12°
2026-05-08 14:51 41.65135 -111.60484 27186 ft 449 kts 12°
2026-05-08 14:52 41.68143 -111.59298 27579 ft 451 kts 12°
2026-05-08 14:52 41.74205 -111.56905 28297 ft 454 kts 12°
2026-05-08 14:52 41.77213 -111.55716 28622 ft 456 kts 12°
2026-05-08 14:53 41.80321 -111.54658 28992 ft 454 kts
2026-05-08 14:53 41.83395 -111.53904 29319 ft 456 kts
2026-05-08 14:53 41.86543 -111.53193 29632 ft 458 kts
2026-05-08 14:53 41.89696 -111.52486 29993 ft 459 kts
2026-05-08 14:54 41.92817 -111.51784 30418 ft 457 kts
2026-05-08 14:54 41.95956 -111.51075 30823 ft 455 kts
2026-05-08 14:54 41.99092 -111.50366 31194 ft 454 kts
2026-05-08 14:54 42.02176 -111.49668 31571 ft 453 kts
2026-05-08 14:55 42.05279 -111.48965 31940 ft 451 kts
2026-05-08 14:55 42.08373 -111.48264 32296 ft 450 kts
2026-05-08 14:55 42.11466 -111.47561 32666 ft 449 kts
2026-05-08 14:55 42.14549 -111.46860 33016 ft 448 kts
2026-05-08 14:56 42.17626 -111.46160 33390 ft 447 kts
2026-05-08 14:56 42.20688 -111.45462 33793 ft 444 kts
2026-05-08 14:56 42.23699 -111.44775 34137 ft 443 kts
2026-05-08 14:56 42.26720 -111.43955 34419 ft 444 kts 11°
2026-05-08 14:57 42.29676 -111.42619 34670 ft 449 kts 19°
2026-05-08 14:57 42.32474 -111.40671 34910 ft 454 kts 27°
2026-05-08 14:57 42.35092 -111.38266 35169 ft 456 kts 30°
2026-05-08 14:57 42.37656 -111.35731 35419 ft 456 kts 32°
2026-05-08 14:58 42.40190 -111.33144 35689 ft 456 kts 32°
2026-05-08 14:58 42.42685 -111.30563 35964 ft 455 kts 32°
2026-05-08 14:58 42.45210 -111.27950 36215 ft 454 kts 32°
2026-05-08 14:58 42.47729 -111.25352 36470 ft 454 kts 32°
2026-05-08 14:59 42.50213 -111.22800 36693 ft 454 kts 31°
2026-05-08 14:59 42.55253 -111.17642 37195 ft 452 kts 31°
2026-05-08 14:59 42.57769 -111.15067 37437 ft 452 kts 31°
2026-05-08 15:00 42.60281 -111.12495 37705 ft 451 kts 31°
2026-05-08 15:00 42.62751 -111.09959 37964 ft 449 kts 31°
2026-05-08 15:00 42.65246 -111.07398 38224 ft 448 kts 31°
2026-05-08 15:00 42.67728 -111.04847 38465 ft 446 kts 31°
2026-05-08 15:01 42.70213 -111.02292 38648 ft 447 kts 31°
2026-05-08 15:01 42.72700 -110.99732 38814 ft 446 kts 31°
2026-05-08 15:01 42.75148 -110.97210 38973 ft 446 kts 31°
2026-05-08 15:01 42.77623 -110.94655 39105 ft 446 kts 31°
2026-05-08 15:02 42.80102 -110.92094 39260 ft 446 kts 31°
2026-05-08 15:02 42.82555 -110.89557 39384 ft 446 kts 31°
2026-05-08 15:02 42.85031 -110.86992 39505 ft 446 kts 31°
2026-05-08 15:02 42.87508 -110.84426 39624 ft 446 kts 32°
2026-05-08 15:03 42.91619 -110.80162 39789 ft 446 kts 31°
2026-05-08 15:03 42.94092 -110.77596 39968 ft 446 kts 32°
2026-05-08 15:03 42.97367 -110.74187 40062 ft 447 kts 32°
2026-05-08 15:04 43.01505 -110.69872 40073 ft 449 kts 32°
2026-05-08 15:04 43.06461 -110.64694 40070 ft 446 kts 32°
2026-05-08 15:05 43.11381 -110.59547 40066 ft 446 kts 32°
2026-05-08 15:05 43.16319 -110.54375 40068 ft 446 kts 32°
2026-05-08 15:06 43.21230 -110.49218 40083 ft 446 kts 31°
2026-05-08 15:06 43.26168 -110.44020 40077 ft 447 kts 32°
2026-05-08 15:07 43.31109 -110.38805 40083 ft 447 kts 32°
2026-05-08 15:07 43.36015 -110.33616 40087 ft 447 kts 32°
2026-05-08 15:08 43.40968 -110.28367 40116 ft 448 kts 32°
2026-05-08 15:08 43.45882 -110.23150 40084 ft 447 kts 32°
2026-05-08 15:09 43.50804 -110.17914 40090 ft 447 kts 32°
2026-05-08 15:09 43.55710 -110.12685 40096 ft 447 kts 32°
2026-05-08 15:10 43.60634 -110.07424 40095 ft 447 kts 32°
2026-05-08 15:10 43.65556 -110.02154 40093 ft 447 kts 31°
2026-05-08 15:11 43.70444 -109.96909 40098 ft 446 kts 31°
2026-05-08 15:11 43.75355 -109.91627 40094 ft 447 kts 32°
2026-05-08 15:12 43.80273 -109.86330 40097 ft 447 kts 32°
2026-05-08 15:12 43.85149 -109.81066 40101 ft 446 kts 32°
2026-05-08 15:13 43.90060 -109.75761 40105 ft 446 kts 31°
2026-05-08 15:13 43.94943 -109.70462 40105 ft 446 kts 32°
2026-05-08 15:14 43.99838 -109.65134 40101 ft 446 kts 32°
2026-05-08 15:14 44.04691 -109.59842 40086 ft 445 kts 32°
2026-05-08 15:15 44.09569 -109.54527 40107 ft 445 kts 31°
2026-05-08 15:15 44.14458 -109.49179 40088 ft 445 kts 31°
2026-05-08 15:16 44.19301 -109.43868 40099 ft 446 kts 32°
2026-05-08 15:16 44.24180 -109.38507 40079 ft 446 kts 32°
2026-05-08 15:17 44.29054 -109.33140 40091 ft 445 kts 32°
2026-05-08 15:17 44.33887 -109.27805 40094 ft 443 kts 31°
2026-05-08 15:18 44.38723 -109.22457 40103 ft 443 kts 31°
2026-05-08 15:18 44.43556 -109.17104 40111 ft 443 kts 31°
2026-05-08 15:19 44.48364 -109.11765 40115 ft 443 kts 31°
2026-05-08 15:19 44.53167 -109.06424 40119 ft 441 kts 31°
2026-05-08 15:20 44.57973 -109.01060 40124 ft 440 kts 31°
2026-05-08 15:20 44.62625 -108.95374 40120 ft 448 kts 40°
2026-05-08 15:21 44.66799 -108.88869 40107 ft 450 kts 41°
2026-05-08 15:21 44.70903 -108.82186 40090 ft 451 kts 42°
2026-05-08 15:22 44.74976 -108.75497 40089 ft 451 kts 42°
2026-05-08 15:22 44.79042 -108.68827 40076 ft 451 kts 42°
2026-05-08 15:23 44.83137 -108.62115 40076 ft 451 kts 42°
2026-05-08 15:23 44.87239 -108.55378 40083 ft 452 kts 42°
2026-05-08 15:24 44.91334 -108.48637 40073 ft 452 kts 42°
2026-05-08 15:24 44.95396 -108.41932 40072 ft 452 kts 42°
2026-05-08 15:25 44.99481 -108.35173 40068 ft 452 kts 42°
2026-05-08 15:25 45.03542 -108.28439 40058 ft 452 kts 42°
2026-05-08 15:26 45.07626 -108.21646 40050 ft 451 kts 42°
2026-05-08 15:26 45.11693 -108.14869 40041 ft 451 kts 42°
2026-05-08 15:27 45.15743 -108.08106 40037 ft 452 kts 42°
2026-05-08 15:27 45.19821 -108.01280 40038 ft 452 kts 42°
2026-05-08 15:28 45.23888 -107.94452 40020 ft 451 kts 42°
2026-05-08 15:28 45.27919 -107.87669 40013 ft 451 kts 42°
2026-05-08 15:29 45.31965 -107.80843 40013 ft 451 kts 42°
2026-05-08 15:29 45.36011 -107.74003 40007 ft 451 kts 42°
2026-05-08 15:30 45.40029 -107.67192 40021 ft 451 kts 41°
2026-05-08 15:30 45.44061 -107.60339 40000 ft 450 kts 41°
2026-05-08 15:31 45.48051 -107.53542 40019 ft 450 kts 41°
2026-05-08 15:31 45.52069 -107.46682 40011 ft 450 kts 42°
2026-05-08 15:32 45.56082 -107.39815 40035 ft 450 kts 41°
2026-05-08 15:32 45.60087 -107.32942 40011 ft 449 kts 41°
2026-05-08 15:33 45.64056 -107.26114 40006 ft 449 kts 41°
2026-05-08 15:33 45.68051 -107.19227 40010 ft 449 kts 41°
2026-05-08 15:34 45.72047 -107.12323 40000 ft 450 kts 41°
2026-05-08 15:34 45.76011 -107.05453 40003 ft 449 kts 41°
2026-05-08 15:35 45.79995 -106.98530 39996 ft 449 kts 41°
2026-05-08 15:35 45.83979 -106.91592 39987 ft 449 kts 41°
2026-05-08 15:36 45.87285 -106.85820 39988 ft 449 kts 41°
2026-05-08 15:36 45.91908 -106.77734 40000 ft 449 kts 41°
2026-05-08 15:37 45.95868 -106.70786 39991 ft 449 kts 41°
2026-05-08 15:37 45.99798 -106.63875 39977 ft 449 kts 41°
2026-05-08 15:38 46.03760 -106.56890 39979 ft 449 kts 41°
2026-05-08 15:38 46.07687 -106.49950 39975 ft 449 kts 41°
2026-05-08 15:39 46.11637 -106.42950 39972 ft 449 kts 41°
2026-05-08 15:39 46.15582 -106.35942 39970 ft 449 kts 41°
2026-05-08 15:40 46.19493 -106.28977 39969 ft 449 kts 41°
2026-05-08 15:40 46.23433 -106.21942 39978 ft 449 kts 41°
2026-05-08 15:41 46.27350 -106.14932 39982 ft 449 kts 41°
2026-05-08 15:41 46.31286 -106.07868 39966 ft 449 kts 41°
2026-05-08 15:42 46.35182 -106.00858 39968 ft 449 kts 41°
2026-05-08 15:42 46.38960 -105.93579 39972 ft 456 kts 47°
2026-05-08 15:43 46.42427 -105.85830 40001 ft 458 kts 48°
2026-05-08 15:43 46.45804 -105.78061 39996 ft 458 kts 48°
2026-05-08 15:44 46.49209 -105.70184 39992 ft 458 kts 48°
2026-05-08 15:44 46.52581 -105.62382 39985 ft 458 kts 48°
2026-05-08 15:45 46.55977 -105.54523 39971 ft 459 kts 48°
2026-05-08 15:45 46.59379 -105.46626 39960 ft 459 kts 48°
2026-05-08 15:46 46.62744 -105.38793 39958 ft 459 kts 49°
2026-05-08 15:46 46.66127 -105.30895 39953 ft 459 kts 49°
2026-05-08 15:47 46.69503 -105.22991 39955 ft 459 kts 49°
2026-05-08 15:47 46.72855 -105.15120 39966 ft 459 kts 49°
2026-05-08 15:48 46.77342 -105.04549 39952 ft 459 kts 49°
2026-05-08 15:49 46.81245 -104.95319 39956 ft 459 kts 49°
2026-05-08 15:49 46.84044 -104.88684 39958 ft 459 kts 49°
2026-05-08 15:50 46.87384 -104.80743 39963 ft 460 kts 49°
2026-05-08 15:50 46.90731 -104.72763 39952 ft 460 kts 49°
2026-05-08 15:51 46.94076 -104.64761 39957 ft 460 kts 49°
2026-05-08 15:51 46.97401 -104.56788 39954 ft 460 kts 49°
2026-05-08 15:52 47.00736 -104.48765 39991 ft 460 kts 50°
2026-05-08 15:52 47.04049 -104.40775 39956 ft 461 kts 50°
2026-05-08 15:53 47.07377 -104.32723 39957 ft 461 kts 50°
2026-05-08 15:53 47.10706 -104.24645 39954 ft 461 kts 50°
2026-05-08 15:54 47.14001 -104.16624 39956 ft 461 kts 50°
2026-05-08 15:54 47.17315 -104.08536 39951 ft 462 kts 50°
2026-05-08 15:55 47.20644 -104.00387 39949 ft 463 kts 50°
2026-05-08 15:55 47.25600 -103.88207 39942 ft 463 kts 50°
2026-05-08 15:56 47.28889 -103.80095 39936 ft 463 kts 50°
2026-05-08 15:56 47.32203 -103.71898 39938 ft 464 kts 51°
2026-05-08 15:57 47.35497 -103.63725 39927 ft 465 kts 51°
2026-05-08 15:57 47.38797 -103.55510 39921 ft 465 kts 51°
2026-05-08 15:58 47.42095 -103.47276 39915 ft 465 kts 51°
2026-05-08 15:58 47.45366 -103.39083 39914 ft 466 kts 51°
2026-05-08 15:59 47.48668 -103.30796 39914 ft 468 kts 51°
2026-05-08 15:59 47.51951 -103.22525 39906 ft 469 kts 51°
2026-05-08 16:00 47.55260 -103.14159 39897 ft 469 kts 52°
2026-05-08 16:00 47.58552 -103.05810 39927 ft 469 kts 52°
2026-05-08 16:01 47.61823 -102.97494 39892 ft 470 kts 52°
2026-05-08 16:01 47.65121 -102.89083 39889 ft 471 kts 52°
2026-05-08 16:02 47.68390 -102.80716 39883 ft 471 kts 52°
2026-05-08 16:02 47.71680 -102.72268 39883 ft 471 kts 52°
2026-05-08 16:03 47.74947 -102.63857 39877 ft 471 kts 53°
2026-05-08 16:03 47.78220 -102.55404 39876 ft 472 kts 53°
2026-05-08 16:04 47.81478 -102.46963 39879 ft 472 kts 53°
2026-05-08 16:04 47.84746 -102.38466 39871 ft 472 kts 53°
2026-05-08 16:05 47.87989 -102.30009 39870 ft 472 kts 53°
2026-05-08 16:05 47.91231 -102.21528 39859 ft 472 kts 53°
2026-05-08 16:06 47.94480 -102.13004 39859 ft 472 kts 53°
2026-05-08 16:06 47.97719 -102.04475 39854 ft 472 kts 53°
2026-05-08 16:07 48.00930 -101.95993 39882 ft 472 kts 54°
2026-05-08 16:07 48.04160 -101.87436 39855 ft 473 kts 54°
2026-05-08 16:08 48.07395 -101.78837 39845 ft 473 kts 54°
2026-05-08 16:08 48.10615 -101.70251 39848 ft 473 kts 54°
2026-05-08 16:09 48.13820 -101.61676 39853 ft 473 kts 54°
2026-05-08 16:09 48.17028 -101.53066 39859 ft 474 kts 54°
2026-05-08 16:10 48.20241 -101.44417 39851 ft 475 kts 54°
2026-05-08 16:10 48.23429 -101.35801 39852 ft 475 kts 54°
2026-05-08 16:11 48.26635 -101.27114 39865 ft 474 kts 54°
2026-05-08 16:11 48.29877 -101.18464 39876 ft 475 kts 54°
2026-05-08 16:12 48.33100 -101.09856 39864 ft 476 kts 54°
2026-05-08 16:12 48.36348 -101.01142 39864 ft 476 kts 54°
2026-05-08 16:13 48.39568 -100.92470 39868 ft 477 kts 54°
2026-05-08 16:13 48.42797 -100.83742 39863 ft 477 kts 54°
2026-05-08 16:14 48.46023 -100.74997 39866 ft 478 kts 55°
2026-05-08 16:14 48.49247 -100.66226 39864 ft 479 kts 55°
2026-05-08 16:15 48.52450 -100.57483 39862 ft 479 kts 55°
2026-05-08 16:15 48.55668 -100.48671 39861 ft 479 kts 55°
2026-05-08 16:16 48.58880 -100.39843 39868 ft 479 kts 55°
2026-05-08 16:16 48.62093 -100.30987 39856 ft 480 kts 56°
2026-05-08 16:17 48.64757 -100.23619 39853 ft 481 kts 56°
2026-05-08 16:17 48.68481 -100.13283 39846 ft 481 kts 56°
2026-05-08 16:18 48.71675 -100.04385 39866 ft 481 kts 56°
2026-05-08 16:18 48.74872 -99.95452 39843 ft 482 kts 56°
2026-05-08 16:19 48.78062 -99.86504 39843 ft 482 kts 56°
2026-05-08 16:19 48.81243 -99.77550 39840 ft 482 kts 56°
2026-05-08 16:20 48.84420 -99.68579 39830 ft 482 kts 56°
2026-05-08 16:20 48.85993 -99.64121 39386 ft 475 kts 56°
2026-05-08 16:20 48.87550 -99.59702 38408 ft 475 kts 56°
2026-05-08 16:21 48.89114 -99.55262 37110 ft 478 kts 56°
2026-05-08 16:21 48.90661 -99.50864 35915 ft 478 kts 56°
2026-05-08 16:21 48.92226 -99.46400 34767 ft 477 kts 56°
2026-05-08 16:21 48.93782 -99.41954 33566 ft 476 kts 56°
2026-05-08 16:22 48.95323 -99.37539 32636 ft 466 kts 56°
2026-05-08 16:22 48.96826 -99.33220 31845 ft 460 kts 56°
2026-05-08 16:22 48.98335 -99.28900 31039 ft 464 kts 56°
2026-05-08 16:22 48.99854 -99.24544 30222 ft 468 kts 56°
2026-05-08 16:23 49.01385 -99.20144 29442 ft 470 kts 56°
2026-05-08 16:23 49.02904 -99.15755 28839 ft 466 kts 56°
2026-05-08 16:23 49.04408 -99.11402 28245 ft 462 kts 56°
2026-05-08 16:23 49.05899 -99.07081 27667 ft 458 kts 56°
2026-05-08 16:24 49.07391 -99.02819 27077 ft 452 kts 53°
2026-05-08 16:24 49.09191 -98.99006 26581 ft 436 kts 40°
2026-05-08 16:24 49.11306 -98.95850 26047 ft 427 kts 36°
2026-05-08 16:24 49.13501 -98.92823 25504 ft 423 kts 36°
2026-05-08 16:25 49.15690 -98.89824 24961 ft 420 kts 36°
2026-05-08 16:25 49.17854 -98.86850 24440 ft 417 kts 36°
2026-05-08 16:25 49.20004 -98.83884 23890 ft 416 kts 36°
2026-05-08 16:25 49.22146 -98.80922 23314 ft 414 kts 36°
2026-05-08 16:26 49.24279 -98.77965 22708 ft 412 kts 36°
2026-05-08 16:26 49.26394 -98.75026 22152 ft 408 kts 36°
2026-05-08 16:26 49.28491 -98.72109 21604 ft 405 kts 36°
2026-05-08 16:26 49.30549 -98.69243 21064 ft 402 kts 36°
2026-05-08 16:27 49.32616 -98.66361 20521 ft 400 kts 36°
2026-05-08 16:27 49.34666 -98.63500 19980 ft 398 kts 36°
2026-05-08 16:27 49.36709 -98.60644 19443 ft 396 kts 36°
2026-05-08 16:27 49.38744 -98.57797 18905 ft 394 kts 36°
2026-05-08 16:28 49.40761 -98.54970 18375 ft 392 kts 36°
2026-05-08 16:28 49.42770 -98.52153 17805 ft 389 kts 36°
2026-05-08 16:28 49.44764 -98.49352 17267 ft 386 kts 36°
2026-05-08 16:28 49.46734 -98.46581 16740 ft 382 kts 36°
2026-05-08 16:29 49.48660 -98.43869 16236 ft 379 kts 37°
2026-05-08 16:29 49.50599 -98.41138 15713 ft 376 kts 37°
2026-05-08 16:29 49.52521 -98.38428 15195 ft 373 kts 37°
2026-05-08 16:29 49.54429 -98.35733 14705 ft 371 kts 37°
2026-05-08 16:30 49.56318 -98.33063 14190 ft 368 kts 37°
2026-05-08 16:30 49.58203 -98.30395 13679 ft 365 kts 37°
2026-05-08 16:30 49.60067 -98.27753 13131 ft 362 kts 37°
2026-05-08 16:30 49.61914 -98.25132 12618 ft 359 kts 37°
2026-05-08 16:31 49.63747 -98.22529 12113 ft 357 kts 37°
2026-05-08 16:31 49.65565 -98.19946 11587 ft 355 kts 37°
2026-05-08 16:31 49.67370 -98.17377 11230 ft 348 kts 37°
2026-05-08 16:31 49.69110 -98.14893 11027 ft 338 kts 37°
2026-05-08 16:32 49.70801 -98.12475 10931 ft 325 kts 37°
2026-05-08 16:32 49.72432 -98.10143 10829 ft 313 kts 37°
2026-05-08 16:32 49.74006 -98.07894 10714 ft 303 kts 37°
2026-05-08 16:32 49.75526 -98.05719 10593 ft 293 kts 37°
2026-05-08 16:33 49.77004 -98.03604 10469 ft 286 kts 37°
2026-05-08 16:33 49.78447 -98.01533 10329 ft 280 kts 37°
2026-05-08 16:33 49.79697 -97.99212 10116 ft 287 kts 54°
2026-05-08 16:33 49.80314 -97.96211 9789 ft 301 kts 81°
2026-05-08 16:34 49.80273 -97.92944 9484 ft 304 kts 90°
2026-05-08 16:34 49.80155 -97.90776 9260 ft 304 kts 91°
2026-05-08 16:34 49.79908 -97.86435 8840 ft 301 kts 91°
2026-05-08 16:34 49.79736 -97.83259 8537 ft 299 kts 91°
2026-05-08 16:35 49.79622 -97.81091 8315 ft 298 kts 91°
2026-05-08 16:35 49.79408 -97.76881 7910 ft 295 kts 91°
2026-05-08 16:35 49.79246 -97.73722 7593 ft 293 kts 91°
2026-05-08 16:35 49.79086 -97.70587 7355 ft 289 kts 91°
2026-05-08 16:36 49.78980 -97.68514 7299 ft 283 kts 91°
2026-05-08 16:36 49.78828 -97.65566 7206 ft 274 kts 91°
2026-05-08 16:36 49.78679 -97.62663 7035 ft 268 kts 91°
2026-05-08 16:36 49.78532 -97.59806 6803 ft 265 kts 91°
2026-05-08 16:37 49.78382 -97.56966 6559 ft 264 kts 92°
2026-05-08 16:37 49.78068 -97.54159 6290 ft 265 kts 99°
2026-05-08 16:37 49.77646 -97.51378 6028 ft 264 kts 100°
2026-05-08 16:37 49.77214 -97.48631 5760 ft 262 kts 100°
2026-05-08 16:38 49.76786 -97.45911 5556 ft 258 kts 100°
2026-05-08 16:38 49.76241 -97.43311 5434 ft 253 kts 116°
2026-05-08 16:38 49.75047 -97.41385 5262 ft 250 kts 152°
2026-05-08 16:38 49.73385 -97.40821 5051 ft 244 kts 181°
2026-05-08 16:39 49.71704 -97.40441 4701 ft 248 kts 156°
2026-05-08 16:39 49.70426 -97.38743 4396 ft 243 kts 116°
2026-05-08 16:39 49.70105 -97.36304 4156 ft 229 kts 76°
2026-05-08 16:39 49.70764 -97.34179 3912 ft 217 kts 43°
2026-05-08 16:40 49.71937 -97.32773 3661 ft 212 kts 29°
2026-05-08 16:40 49.73124 -97.31457 3418 ft 214 kts 41°
2026-05-08 16:40 49.74011 -97.29602 3225 ft 215 kts 55°
2026-05-08 16:40 49.75066 -97.28041 3028 ft 210 kts 27°
2026-05-08 16:41 49.76418 -97.27216 2835 ft 210 kts 11°
2026-05-08 16:41 49.77855 -97.26894 2540 ft 207 kts
2026-05-08 16:41 49.79240 -97.26588 2362 ft 194 kts
2026-05-08 16:42 49.81690 -97.25998 2135 ft 159 kts
2026-05-08 16:42 49.82710 -97.25758 2116 ft 140 kts
2026-05-08 16:42 49.83644 -97.25542 2030 ft 136 kts
2026-05-08 16:42 49.84580 -97.25327 1833 ft 136 kts
2026-05-08 16:43 49.85497 -97.25115 1650 ft 130 kts
2026-05-08 16:43 49.86365 -97.24913 1458 ft 124 kts
2026-05-08 16:43 49.87215 -97.24729 1271 ft 123 kts
2026-05-08 16:43 49.88064 -97.24541 1107 ft 125 kts
2026-05-08 16:44 49.88920 -97.24330 956 ft 123 kts
2026-05-08 16:44 49.89753 -97.24134 814 ft 116 kts
2026-05-08 16:44 49.90414 -97.23986 787 ft 59 kts 11°
2026-05-08 16:44 49.90574 -97.23946 790 ft 8 kts
2026-05-08 16:45 49.90632 -97.23932 791 ft 11 kts
2026-05-08 16:45 49.90731 -97.23887 790 ft 17 kts 26°
2026-05-08 16:45 49.90796 -97.23785 789 ft 0 kts 61°
2026-05-08 16:46 49.90798 -97.23781 789 ft 1 kts 61°
2026-05-08 16:46 49.90798 -97.23780 789 ft 0 kts 61°
2026-05-08 16:46 49.90799 -97.23776 789 ft 1 kts 61°
2026-05-08 16:47 49.90805 -97.23752 788 ft 3 kts 71°
2026-05-08 16:47 49.90817 -97.23681 787 ft 9 kts 77°
2026-05-08 16:47 49.90833 -97.23568 785 ft 12 kts 78°
2026-05-08 16:47 49.90851 -97.23432 785 ft 13 kts 78°
2026-05-08 16:48 49.90868 -97.23291 786 ft 13 kts 82°
2026-05-08 16:48 49.90879 -97.23145 786 ft 14 kts 84°
2026-05-08 16:48 49.90885 -97.23006 786 ft 13 kts 86°
2026-05-08 16:48 49.90887 -97.22876 787 ft 10 kts 101°
2026-05-08 16:49 49.90860 -97.22796 788 ft 8 kts 122°
2026-05-08 16:49 49.90825 -97.22720 788 ft 9 kts 126°
2026-05-08 16:49 49.90786 -97.22638 786 ft 8 kts 126°
2026-05-08 16:49 49.90764 -97.22561 786 ft 7 kts 93°
2026-05-08 16:50 49.90763 -97.22506 787 ft 5 kts 90°
2026-05-08 16:50 49.90762 -97.22446 787 ft 5 kts 96°
2026-05-08 16:50 49.90749 -97.22429 787 ft 4 kts 145°
2026-05-08 16:50 49.90716 -97.22419 788 ft 5 kts 176°
2026-05-08 16:51 49.90694 -97.22417 788 ft 0 kts 177°
2026-05-08 16:51 49.90688 -97.22417 788 ft 6 kts 177°
2026-05-08 16:51 49.90685 -97.22417 788 ft 0 kts 177°